User: anonymous   Login
Location: Düngen
(52.0952°N, 10.0219°E)
Time: 02:29:55
(UTC+00:00)
Language:

Meteor 1-10 Rocket - Orbit

View from above orbital plane
View from above orbital plane
View from above satellite
View from above satellite

Ground track
Ground track

The orbit is defined by the following mean orbital elements,

1 05732U          26129.76854580 +.00000000 +00000-0 +93308-7 0 00003
2 05732  81.2532 224.4016 0049826 267.7407  91.8056 14.06427126    03
Epoch (UTC): 09 May 2026 18:26:42
Eccentricity: 0.0049826
inclination: 81.2532°
perigee height: 836 km
apogee height: 908 km
right ascension of ascending node: 224.4016°
argument of perigee: 267.7407°
revolutions per day: 14.06427126
mean anomaly at epoch: 91.8056°

The dashed part of the orbit path shows where the satellite is in the earth's shadow,  

DLR